Gas Snapper — V7TZ3 — position and weather

sailwx.info

Track history (hours):
 
Tides and Currents Weather Stations Pressure Air Temp Water Temp Dewpoint Dewpoint Depression Visibility Wind Speed Wind Dir Waves Ship Positions

Gas Snapper

Last reported at 2014-Sep-30 23:33 UTC. Time now 2014-Sep-30 23:57 UTC.
Position N 40°46' E 028°09'.

Length 174 m; draft 6.7 m.

Type: Ship (hazmat cat D). MMSI: 538003911.

Date/timePositionNaut miles runAvg speedWind from/ knotsBaromVisibWave heightAir tempDewpointWater temp
2014-Sep-30 23:33N 40°46' E 028°09'1413.8
2014-Sep-30 22:33N 40°44' E 027°51'19611.5
2014-Sep-30 05:33N 38°05' E 025°23'1515.2
2014-Sep-30 04:34N 37°55' E 025°37'1514.6
2014-Sep-30 03:34N 37°41' E 025°43'1514.9
2014-Sep-30 02:33N 37°26' E 025°43'1413.9
2014-Sep-30 01:34N 37°14' E 025°52'1515.0
2014-Sep-30 00:34N 37°03' E 026°05'1514.8
2014-Sep-29 23:34N 36°52' E 026°18'1514.8
2014-Sep-29 22:33N 36°41' E 026°30'1514.9
2014-Sep-29 21:33N 36°30' E 026°43'2015.6
2014-Sep-29 20:15N 36°16' E 027°01'  
Track history (hours):
 
Tides and Currents Weather Stations Pressure Air Temp Water Temp Dewpoint Dewpoint Depression Visibility Wind Speed Wind Dir Waves Ship Positions

Gas Snapper

Last reported at 2014-Sep-30 23:33 UTC. Time now 2014-Sep-30 23:57 UTC.
Position N 40°46' E 028°09'.

Length 174 m; draft 6.7 m.

Type: Ship (hazmat cat D). MMSI: 538003911.

Date/timePositionNaut miles runAvg speedWind from/ knotsBaromVisibWave heightAir tempDewpointWater temp
2014-Sep-30 23:33N 40°46' E 028°09'1413.8
2014-Sep-30 22:33N 40°44' E 027°51'19611.5
2014-Sep-30 05:33N 38°05' E 025°23'1515.2
2014-Sep-30 04:34N 37°55' E 025°37'1514.6
2014-Sep-30 03:34N 37°41' E 025°43'1514.9
2014-Sep-30 02:33N 37°26' E 025°43'1413.9
2014-Sep-30 01:34N 37°14' E 025°52'1515.0
2014-Sep-30 00:34N 37°03' E 026°05'1514.8
2014-Sep-29 23:34N 36°52' E 026°18'1514.8
2014-Sep-29 22:33N 36°41' E 026°30'1514.9
2014-Sep-29 21:33N 36°30' E 026°43'2015.6
2014-Sep-29 20:15N 36°16' E 027°01'  

Dump ship's entire track history